Location: *
(46.3500°N, 10.9000°E)
Time: 00:48:14
(UTC+00:00)

Vanguard 2 - Pass Details

Date: 25 April 2021
Orbit: 552 x 2938 km, 32.9° (Epoch: 12 May)

Event Time Altitude Azimuth Distance (km) Brightness Sun altitude
Rises 09:22:40 0° 222° (SW) 6,667 12.3 49.5°
Reaches altitude 10° 09:27:36 10° 215° (SW) 5,743 12.2 50.1°
Maximum altitude 09:42:42 36° 158° (SSE) 3,803 12.8 51.8°
Drops below altitude 10° 09:55:18 10° 99° (E) 4,822 12.1 53.0°
Sets 09:58:57 0° 91° (E) 5,528 12.2 53.4°
